Retour au catalogue

STARLINK-11104

ActifCommunicationsVLEO
NORAD 59763·PAYLOAD·🇺🇸 United States

Lancé May 14, 2024 depuis Vandenberg Space Force Base

Loading…

Prochains Passages (prochaines 24 heures)

TLE

FraisSource: CelesTrak SupGP

Époque: Sep 14, 2026, 21:08 UTC

1 59763C 24091L   26257.88104167 -.00019182  00000+0 -15790-3 0  2577
2 59763  53.1567 353.3813 0001105  65.5871 207.1475 15.69736101    10

Suivez STARLINK-11104 en temps réel avec AllMySat

Download on the App Store